MaSat-1 - Orbit

View from above orbital plane
View from above orbital plane
View from above satellite
View from above satellite

Ground track
Ground track

The orbit data is extracted from the following two-line orbital elements,

1 38081U 12006E   13169.18263787  .00032590  30502-5  68502-3 0  1553
2 38081 069.4683 180.2259 0609158 136.4502 228.6429 14.47127078 69880
Epoch (UTC): 18 June 2013 04:22:59
Eccentricity: 0.0609158
inclination: 69.4683°
perigee height: 302 km
apogee height: 1168 km
right ascension of ascending node: 180.2259°
argument of perigee: 136.4502°
revolutions per day: 14.47127078
mean anomaly at epoch: 228.6429°
orbit number at epoch: 6988

The dashed part of the orbit path shows where the satellite is in the earth's shadow,  

Developed and maintained by Chris Peat, Heavens-Above GmbH. Please read the updated FAQ before sending e-mail. Imprint. DLR